Regional Weather Roundup
Issued by NWS

Home | Current Version | Previous Version | Text Only | Print | Product List | Glossary On
Versions: 1 2 3 4 5 6 7 8 9 10 11 12 13 14 15 16 17 18 19 20 21 22 23 24 25 26 27 28 29 30 31 32 33 34 35 36 37 38 39 40 41 42 43 44 45 46 47 48 49 50
000
ASUS44 KOUN 230200
RWROK

WEATHER ROUNDUP FOR OKLAHOMA
NATIONAL WEATHER SERVICE NORMAN OK
900 PM CDT FRI SEP 22 2017

NOTE: "FAIR" INDICATES FEW OR NO CLOUDS BELOW 12,000 FEET WITH NO
      SIGNIFICANT WEATHER AND/OR OBSTRUCTIONS TO VISIBILITY.

OKZ001>007-009>012-014-015-017-230300-
NORTHWEST OKLAHOMA AND THE PANHANDLE

CITY           SKY/WX    TMP DP  RH WIND       PRES   REMARKS
GAGE           CLEAR     80  66  62 SE15      29.89R
GUYMON         CLOUDY    81  61  50 S10       29.85R
ENID/WOODRING  PTCLDY    81  68  65 SE12      29.88R
$$

OKZ016-021>023-033>039-044-045-230300-
SOUTHWEST OKLAHOMA

CITY           SKY/WX    TMP DP  RH WIND       PRES   REMARKS
LAWTON/REGL    CLEAR     81  69  67 SE9       29.88R
LAWTON/FT SILL CLEAR     80  71  74 SE10      29.88R
FREDERICK      CLEAR     81  69  67 SE13      29.84R
CLINTON        CLEAR     79  66  64 SE15      29.90R
HOBART         CLEAR     82  67  60 SE16      29.88R
ALTUS AFB      CLEAR     80  67  63 SE15      29.86R
$$

OKZ018>020-024>031-230300-
CENTRAL OKLAHOMA

CITY           SKY/WX    TMP DP  RH WIND       PRES   REMARKS
OKLAHOMA CITY  PTCLDY    79  66  64 SE10      29.91R
OKC/WILEY POST CLEAR     82  67  60 SE14G24   29.90R
OKC/TINKER AFB CLEAR     79  66  65 SE7       29.91S
STILLWATER     CLEAR     81  66  60 SE12      29.90S
GUTHRIE        CLEAR     81  67  62 SE9       29.90R
$$

OKZ008-013-054>072-230300-
NORTHEAST OKLAHOMA

CITY           SKY/WX    TMP DP  RH WIND       PRES   REMARKS
TULSA          CLEAR     80  68  66 SE5       29.91R
TULSA/JONES    CLEAR     76  69  79 CALM      29.92R
PONCA CITY     CLEAR     81  67  62 SE14      29.90R
MUSKOGEE       CLEAR     78  68  71 SE3       29.94R
$$

OKZ032-040>043-046>053-073>077-230300-
SOUTH CENTRAL/SOUTHEAST OKLAHOMA

CITY           SKY/WX    TMP DP  RH WIND       PRES   REMARKS
MCALESTER      CLEAR     79  65  62 S5        29.94R
$$




USA.gov is the U.S. government's official web portal to all federal, state and local government web resources and services.